| time (UTC) | temp F | wind direction | speed MPH | gust MPH | rain 1hr in | rain 24hr in | rain mn in | humidity % | barometer mb |
| 20260505041011 | 53 | 0 | 0.0 | 0.0 | 0.00 | 0.12 | 0.00 | 99 | 1005.3 |
| 20260505040009 | 52 | 0 | 0.0 | 0.0 | 0.00 | 0.12 | 0.00 | 99 | 1005.0 |
| 20260505035011 | 52 | 225 | 0.0 | 2.0 | 0.00 | 0.12 | 0.00 | 99 | 1005.1 |
| 20260505034011 | 52 | 251 | 0.0 | 1.0 | 0.00 | 0.12 | 0.00 | 99 | 1005.1 |
| 20260505033008 | 52 | 270 | 0.0 | 1.0 | 0.00 | 0.12 | 0.00 | 99 | 1005.1 |
| 20260505032011 | 52 | 248 | 0.0 | 1.0 | 0.00 | 0.12 | 0.00 | 99 | 1005.1 |
| 20260505031008 | 52 | 225 | 0.0 | 2.0 | 0.00 | 0.12 | 0.00 | 99 | 1005.2 |
| 20260505030009 | 52 | 225 | 1.0 | 2.0 | 0.00 | 0.12 | 0.00 | 99 | 1005.3 |
| 20260505025011 | 53 | 0 | 0.0 | 0.0 | 0.00 | 0.12 | 0.00 | 99 | 1005.5 |
| 20260505024009 | 53 | 225 | 0.0 | 1.0 | 0.00 | 0.12 | 0.00 | 99 | 1005.6 |
| 20260505023008 | 53 | 223 | 0.0 | 1.0 | 0.00 | 0.12 | 0.00 | 99 | 1005.6 |
| 20260505022011 | 53 | 248 | 0.0 | 1.0 | 0.00 | 0.12 | 0.00 | 99 | 1005.5 |
| 20260505021008 | 53 | 0 | 0.0 | 0.0 | 0.00 | 0.12 | 0.00 | 99 | 1005.5 |
| 20260505020008 | 53 | 211 | 0.0 | 2.0 | 0.00 | 0.12 | 0.00 | 99 | 1005.4 |
| 20260505015011 | 53 | 249 | 0.0 | 1.0 | 0.00 | 0.12 | 0.00 | 99 | 1005.3 |
| 20260505014009 | 53 | 0 | 0.0 | 0.0 | 0.00 | 0.12 | 0.00 | 99 | 1005.4 |
| 20260505013008 | 53 | 171 | 0.0 | 2.0 | 0.00 | 0.12 | 0.00 | 99 | 1005.3 |
| 20260505012010 | 54 | 191 | 1.0 | 2.0 | 0.00 | 0.12 | 0.00 | 99 | 1005.4 |
| 20260505011008 | 54 | 254 | 0.0 | 2.0 | 0.00 | 0.12 | 0.00 | 99 | 1005.2 |
| 20260505010009 | 54 | 199 | 0.0 | 2.0 | 0.00 | 0.12 | 0.00 | 99 | 1005.2 |
| 20260505005014 | 54 | 202 | 0.0 | 2.0 | 0.00 | 0.12 | 0.00 | 99 | 1005.2 |
| 20260505004007 | 53 | 270 | 0.0 | 1.0 | 0.00 | 0.12 | 0.00 | 99 | 1005.2 |
| 20260505003008 | 54 | 270 | 0.0 | 2.0 | 0.00 | 0.12 | 0.00 | 99 | 1005.3 |
| 20260505002011 | 54 | 270 | 0.0 | 2.0 | 0.00 | 0.12 | 0.00 | 99 | 1005.5 |
| 20260505001012 | 54 | 0 | 0.0 | 0.0 | 0.00 | 0.12 | 0.00 | 99 | 1005.5 |
| 20260505000010 | 55 | 197 | 0.0 | 1.0 | 0.00 | 0.12 | 0.00 | 99 | 1005.7 |
| 20260504235012 | 55 | 190 | 0.0 | 2.0 | 0.00 | 0.12 | 0.00 | 99 | 1005.7 |
| 20260504234012 | 55 | 31 | 0.0 | 4.0 | 0.00 | 0.12 | 0.00 | 99 | 1005.6 |
| 20260504233011 | 55 | 92 | 0.0 | 2.0 | 0.00 | 0.12 | 0.00 | 99 | 1005.5 |
| 20260504232011 | 55 | 21 | 0.0 | 4.0 | 0.00 | 0.12 | 0.00 | 99 | 1005.6 |
| 20260504231013 | 55 | 46 | 0.0 | 4.0 | 0.00 | 0.12 | 0.00 | 99 | 1005.8 |
| 20260504230010 | 55 | 357 | 2.0 | 4.0 | 0.00 | 0.12 | 0.00 | 99 | 1005.6 |
| 20260504225012 | 55 | 219 | 0.0 | 2.0 | 0.00 | 0.12 | 0.00 | 99 | 1005.7 |
| 20260504224012 | 55 | 299 | 0.0 | 3.0 | 0.00 | 0.12 | 0.00 | 99 | 1005.6 |
| 20260504223010 | 55 | 250 | 0.0 | 2.0 | 0.00 | 0.12 | 0.00 | 99 | 1005.6 |
| 20260504222010 | 55 | 176 | 0.0 | 2.0 | 0.01 | 0.12 | 0.00 | 99 | 1005.5 |
| 20260504221013 | 55 | 229 | 0.0 | 2.0 | 0.01 | 0.12 | 0.00 | 99 | 1005.3 |
| 20260504220011 | 56 | 217 | 1.0 | 2.0 | 0.06 | 0.12 | 0.00 | 99 | 1005.2 |
| 20260504215013 | 56 | 313 | 0.0 | 4.0 | 0.09 | 0.12 | 0.12 | 99 | 1005.1 |
| 20260504214012 | 56 | 80 | 1.0 | 4.0 | 0.09 | 0.12 | 0.12 | 99 | 1005.1 |
| 20260504213010 | 56 | 135 | 1.0 | 4.0 | 0.11 | 0.12 | 0.12 | 99 | 1005.8 |
| 20260504212013 | 57 | 333 | 1.0 | 6.0 | 0.09 | 0.11 | 0.11 | 99 | 1006.3 |
| 20260504211012 | 57 | 252 | 1.0 | 4.0 | 0.09 | 0.09 | 0.09 | 99 | 1006.5 |
| 20260504210009 | 58 | 238 | 1.0 | 4.0 | 0.06 | 0.06 | 0.06 | 99 | 1006.4 |
| 20260504205012 | 59 | 266 | 0.0 | 3.0 | 0.02 | 0.02 | 0.02 | 99 | 1006.1 |
| 20260504204009 | 60 | 220 | 0.0 | 2.0 | 0.02 | 0.02 | 0.02 | 99 | 1005.9 |
| 20260504203009 | 61 | 214 | 0.0 | 1.0 | 0.01 | 0.01 | 0.01 | 94 | 1005.4 |
| 20260504202012 | 63 | 17 | 0.0 | 2.0 | 0.01 | 0.01 | 0.01 | 87 | 1005.2 |
| 20260504201011 | 66 | 347 | 0.0 | 3.0 | 0.00 | 0.00 | 0.00 | 77 | 1005.0 |
| 20260504200009 | 68 | 333 | 0.0 | 4.0 | 0.00 | 0.00 | 0.00 | 67 | 1004.8 |
| 20260504195012 | 68 | 353 | 1.0 | 5.0 | 0.00 | 0.00 | 0.00 | 66 | 1004.7 |
| 20260504194011 | 68 | 359 | 2.0 | 5.0 | 0.00 | 0.00 | 0.00 | 65 | 1004.6 |
| 20260504193010 | 68 | 351 | 0.0 | 4.0 | 0.00 | 0.00 | 0.00 | 64 | 1004.5 |
| 20260504192012 | 68 | 344 | 0.0 | 2.0 | 0.00 | 0.00 | 0.00 | 64 | 1004.7 |
| 20260504191012 | 68 | 351 | 1.0 | 2.0 | 0.00 | 0.00 | 0.00 | 63 | 1004.5 |
| 20260504190010 | 68 | 350 | 2.0 | 4.0 | 0.00 | 0.00 | 0.00 | 62 | 1004.3 |
| 20260504185012 | 68 | 357 | 1.0 | 2.0 | 0.00 | 0.00 | 0.00 | 61 | 1004.2 |
| 20260504184008 | 69 | 342 | 0.0 | 3.0 | 0.00 | 0.00 | 0.00 | 58 | 1004.0 |
| 20260504183009 | 69 | 356 | 0.0 | 1.0 | 0.00 | 0.00 | 0.00 | 57 | 1003.9 |
| 20260504182011 | 70 | 350 | 0.0 | 2.0 | 0.00 | 0.00 | 0.00 | 54 | 1003.7 |
| 20260504181011 | 71 | 359 | 0.0 | 2.0 | 0.00 | 0.00 | 0.00 | 52 | 1003.5 |
| 20260504180009 | 72 | 15 | 0.0 | 4.0 | 0.00 | 0.00 | 0.00 | 52 | 1003.4 |
| 20260504175011 | 73 | 35 | 1.0 | 4.0 | 0.00 | 0.00 | 0.00 | 52 | 1003.4 |
| 20260504174012 | 74 | 28 | 0.0 | 3.0 | 0.00 | 0.00 | 0.00 | 51 | 1003.1 |
| 20260504173009 | 74 | 9 | 0.0 | 6.0 | 0.00 | 0.00 | 0.00 | 50 | 1003.1 |
| 20260504172010 | 74 | 42 | 2.0 | 6.0 | 0.00 | 0.00 | 0.00 | 49 | 1003.2 |
| 20260504171011 | 75 | 42 | 4.0 | 6.0 | 0.00 | 0.00 | 0.00 | 48 | 1003.2 |
| 20260504151008 | 78 | 308 | 0.0 | 4.0 | 0.00 | 0.00 | 0.00 | 43 | 1003.4 |
| 20260504141008 | 80 | 186 | 2.0 | 4.0 | 0.00 | 0.00 | 0.00 | 41 | 1003.7 |
| 20260504081009 | 69 | 135 | 0.0 | 1.0 | 0.00 | 0.00 | 0.00 | 65 | 1010.2 |
| 20260504050012 | 50 | 253 | 0.0 | 2.0 | 0.00 | 0.00 | 0.00 | 98 | 1010.4 |